K7SKM Weather Reports


Display with metric or nautical units.
time (UTC)temp
F
wind
direction
speed
MPH
gust
MPH
rain 1hr
in
rain 24hr
in
rain mn
in
humidity
%
barometer
mb
20260503191650 80 232 0.0 0.0 0.00 0.00 0.00 41 1017.3
20260503191147 77 231 0.0 5.0 0.00 0.00 0.00 46 1017.4
20260503190644 76 221 0.0 10.0 0.00 0.00 0.00 47 1017.7
20260503190140 77 256 4.0 10.0 0.00 0.00 0.00 44 1017.5
20260503185637 77 266 0.0 12.0 0.00 0.00 0.00 45 1017.6
20260503185132 78 306 2.0 5.0 0.00 0.00 0.00 43 1017.8
20260503184628 76 284 3.0 7.0 0.00 0.00 0.00 46 1017.8
20260503184125 75 279 6.0 12.0 0.00 0.00 0.00 47 1017.9
20260503183621 76 238 0.0 0.0 0.00 0.00 0.00 46 1017.8
20260503183118 76 257 0.0 3.0 0.00 0.00 0.00 46 1017.9
20260503182617 74 247 0.0 7.0 0.00 0.00 0.00 48 1018.0
20260503182115 75 268 2.0 5.0 0.00 0.00 0.00 46 1018.0
20260503181611 75 230 0.0 5.0 0.00 0.00 0.00 45 1018.0
20260503181108 75 244 0.0 0.0 0.00 0.00 0.00 46 1018.2
20260503180605 73 271 1.0 7.0 0.00 0.00 0.00 46 1018.0
20260503180103 75 256 0.0 0.0 0.00 0.00 0.00 47 1018.0
20260503175559 72 272 4.0 7.0 0.00 0.00 0.00 49 1018.0
20260503175057 72 295 0.0 7.0 0.00 0.00 0.00 49 1018.2
20260503174554 72 273 0.0 5.0 0.00 0.00 0.00 49 1018.2
20260503174050 71 272 0.0 7.0 0.00 0.00 0.00 50 1018.3
20260503173545 74 314 0.0 3.0 0.00 0.00 0.00 48 1018.2
20260503173042 75 245 0.0 0.0 0.00 0.00 0.00 46 1018.2
20260503172539 73 119 0.0 0.0 0.00 0.00 0.00 50 1018.4
20260503172036 71 289 0.0 0.0 0.00 0.00 0.00 52 1018.5
20260503171533 72 315 0.0 5.0 0.00 0.00 0.00 52 1018.5
20260503171030 71 231 0.0 0.0 0.00 0.00 0.00 53 1018.5
20260503170526 70 263 0.0 0.0 0.00 0.00 0.00 56 1018.5
20260503150918 58 185 0.0 0.0 0.00 0.00 0.00 79 1019.0
20260503150415 58 184 0.0 0.0 0.00 0.00 0.00 79 1019.1
20260503131308 51 139 0.0 0.0 0.00 0.00 0.00 94 1018.6
20260503130806 51 179 0.0 0.0 0.00 0.00 0.00 94 1018.6
20260503130303 51 171 0.0 0.0 0.00 0.00 0.00 94 1018.7
20260503110657 52 183 0.0 0.0 0.00 0.00 0.00 87 1018.8
20260503110154 53 183 0.0 0.0 0.00 0.00 0.00 87 1019.0
20260503100121 54 215 0.0 0.0 0.00 0.00 0.00 85 1018.9
20260503081510 57 150 0.0 0.0 0.00 0.00 0.00 81 1019.2
20260503081007 57 155 0.0 0.0 0.00 0.00 0.00 80 1019.0
20260503080503 57 153 0.0 0.0 0.00 0.00 0.00 80 1019.1
20260503072939 58 139 0.0 0.0 0.00 0.00 0.00 78 1019.0
20260503072437 58 155 0.0 0.0 0.00 0.00 0.00 78 1018.8
20260503071934 59 178 0.0 0.0 0.00 0.00 0.00 77 1018.9
20260503071431 59 168 0.0 0.0 0.00 0.00 0.00 77 1018.8
20260503070927 59 140 1.0 3.0 0.00 0.00 0.00 76 1018.9
20260503070424 59 174 0.0 0.0 0.00 0.00 0.00 75 1019.0
20260503054838 62 175 0.0 0.0 0.00 0.00 0.00 67 1018.3
20260503054334 62 150 0.0 0.0 0.00 0.00 0.00 67 1018.4
20260503053832 62 199 0.0 0.0 0.00 0.00 0.00 67 1018.3
20260503053330 62 171 0.0 0.0 0.00 0.00 0.00 67 1018.4
20260503052826 62 170 0.0 0.0 0.00 0.00 0.00 66 1018.4
20260503052323 62 171 0.0 0.0 0.00 0.00 0.00 66 1018.5
20260503051819 63 177 0.0 0.0 0.00 0.00 0.00 66 1018.5
20260503051316 63 196 0.0 0.0 0.00 0.00 0.00 65 1018.4
20260503050812 63 169 0.0 0.0 0.00 0.00 0.00 65 1018.4
20260503050309 64 144 0.0 0.0 0.00 0.00 0.00 63 1018.3
20260503045806 64 217 0.0 0.0 0.00 0.00 0.00 61 1018.2
20260503045305 64 217 0.0 0.0 0.00 0.00 0.00 60 1018.5
20260503044800 64 217 0.0 0.0 0.00 0.00 0.00 59 1018.3
20260503044257 65 210 0.0 0.0 0.00 0.00 0.00 58 1018.2
20260503043755 65 210 0.0 0.0 0.00 0.00 0.00 57 1018.4
20260503043251 66 219 0.0 0.0 0.00 0.00 0.00 55 1018.2
20260503042747 67 236 0.0 0.0 0.00 0.00 0.00 54 1018.3
20260503042244 67 238 0.0 0.0 0.00 0.00 0.00 53 1018.1
20260503041740 67 277 0.0 0.0 0.00 0.00 0.00 53 1018.1
20260503041238 67 240 0.0 0.0 0.00 0.00 0.00 55 1018.2
20260503040736 67 237 0.0 0.0 0.00 0.00 0.00 54 1018.0
20260503040233 68 235 0.0 0.0 0.00 0.00 0.00 54 1017.8
20260503035729 68 235 0.0 0.0 0.00 0.00 0.00 53 1017.8
20260503035227 68 231 0.0 0.0 0.00 0.00 0.00 53 1017.9
20260503034724 68 247 0.0 0.0 0.00 0.00 0.00 53 1017.6
20260503034221 69 245 0.0 0.0 0.00 0.00 0.00 53 1017.7
20260503033719 69 242 0.0 0.0 0.00 0.00 0.00 53 1017.6
20260503033216 70 271 0.0 3.0 0.00 0.00 0.00 52 1017.5
20260503032714 70 269 0.0 0.0 0.00 0.00 0.00 52 1017.6
20260503032213 70 237 0.0 3.0 0.00 0.00 0.00 52 1017.5
20260503031709 70 223 0.0 3.0 0.00 0.00 0.00 51 1017.4
20260503031208 71 225 0.0 7.0 0.00 0.00 0.00 51 1017.4
20260503030703 71 229 0.0 5.0 0.00 0.00 0.00 50 1017.1
20260503030200 71 261 0.0 0.0 0.00 0.00 0.00 50 1017.3
20260503025657 72 238 0.0 0.0 0.00 0.00 0.00 50 1017.1
20260503025154 72 276 0.0 0.0 0.00 0.00 0.00 49 1017.2
20260503024650 72 252 6.0 10.0 0.00 0.00 0.00 49 1017.1
20260503024148 73 291 0.0 3.0 0.00 0.00 0.00 49 1017.2
20260503023645 73 226 0.0 3.0 0.00 0.00 0.00 49 1017.2
20260503023142 73 245 0.0 0.0 0.00 0.00 0.00 48 1016.9
20260503022637 73 224 0.0 0.0 0.00 0.00 0.00 48 1016.9
20260503022132 74 295 0.0 0.0 0.00 0.00 0.00 47 1017.0
20260503021629 74 274 0.0 0.0 0.00 0.00 0.00 47 1017.1
20260503021126 74 273 2.0 7.0 0.00 0.00 0.00 47 1016.9
20260503020623 74 275 3.0 5.0 0.00 0.00 0.00 46 1016.9
20260503020120 75 292 4.0 7.0 0.00 0.00 0.00 46 1017.0
20260503015617 75 243 0.0 3.0 0.00 0.00 0.00 46 1017.0
20260503015114 75 214 0.0 5.0 0.00 0.00 0.00 46 1016.9
20260503014609 75 268 0.0 10.0 0.00 0.00 0.00 45 1017.1
20260503014107 75 264 6.0 10.0 0.00 0.00 0.00 46 1017.0
20260503013605 75 214 0.0 0.0 0.00 0.00 0.00 46 1017.0
20260503013103 75 249 0.0 10.0 0.00 0.00 0.00 46 1016.9
20260503012600 75 232 0.0 0.0 0.00 0.00 0.00 46 1017.3
20260503012056 75 292 0.0 0.0 0.00 0.00 0.00 45 1017.0
20260503011552 76 274 0.0 0.0 0.00 0.00 0.00 45 1017.1
20260503011050 76 262 3.0 7.0 0.00 0.00 0.00 44 1017.2
20260503010546 77 264 0.0 5.0 0.00 0.00 0.00 43 1017.2
20260503010044 77 267 1.0 7.0 0.00 0.00 0.00 42 1017.2
20260503005541 78 348 5.0 10.0 0.00 0.00 0.00 42 1017.1
20260503005038 78 291 6.0 10.0 0.00 0.00 0.00 41 1017.3
20260503004534 78 271 5.0 10.0 0.00 0.00 0.00 41 1017.3
20260503004032 78 210 0.0 7.0 0.00 0.00 0.00 42 1017.2
20260503003528 78 284 8.0 12.0 0.00 0.00 0.00 41 1017.3
20260503003026 78 282 7.0 10.0 0.00 0.00 0.00 41 1017.2
20260503002523 78 250 2.0 15.0 0.00 0.00 0.00 42 1017.3
20260503002020 79 69 0.0 5.0 0.00 0.00 0.00 41 1017.3
20260503001516 80 257 1.0 3.0 0.00 0.00 0.00 40 1017.3
20260503001013 79 167 1.0 3.0 0.00 0.00 0.00 41 1017.3
20260503000511 78 260 0.0 5.0 0.00 0.00 0.00 41 1017.4
20260503000008 78 276 0.0 5.0 0.00 0.00 0.00 42 1017.3
20260502235504 78 280 0.0 7.0 0.00 0.00 0.00 42 1017.5
20260502235002 77 289 7.0 10.0 0.00 0.00 0.00 42 1017.3
20260502234458 77 275 3.0 7.0 0.00 0.00 0.00 43 1017.5
20260502233955 78 248 0.0 0.0 0.00 0.00 0.00 41 1017.5
20260502233450 78 298 5.0 10.0 0.00 0.00 0.00 42 1017.6
20260502232947 78 278 4.0 7.0 0.00 0.00 0.00 42 1017.8
20260502232444 79 228 0.0 3.0 0.00 0.00 0.00 42 1018.0
20260502231941 80 256 0.0 5.0 0.00 0.00 0.00 43 1018.0
20260502231438 78 296 0.0 7.0 0.00 0.00 0.00 44 1018.0
20260502230936 78 249 0.0 12.0 0.00 0.00 0.00 45 1018.0
20260502230434 78 273 4.0 10.0 0.00 0.00 0.00 44 1018.0
20260502225931 79 283 0.0 3.0 0.00 0.00 0.00 44 1018.2
20260502225427 79 198 0.0 0.0 0.00 0.00 0.00 45 1018.4
20260502224924 78 54 0.0 5.0 0.00 0.00 0.00 45 1018.2
20260502224420 78 5 0.0 0.0 0.00 0.00 0.00 44 1018.3
20260502223917 78 266 0.0 5.0 0.00 0.00 0.00 45 1018.4
20260502223415 78 252 0.0 3.0 0.00 0.00 0.00 44 1018.7
20260502222914 78 285 4.0 10.0 0.00 0.00 0.00 45 1018.6
20260502222410 77 271 0.0 5.0 0.00 0.00 0.00 47 1018.6
20260502221905 77 230 0.0 0.0 0.00 0.00 0.00 46 1018.7
20260502221402 75 244 2.0 15.0 0.00 0.00 0.00 48 1018.7
20260502220859 77 246 1.0 3.0 0.00 0.00 0.00 46 1018.8
20260502220355 75 324 3.0 15.0 0.00 0.00 0.00 47 1018.6
20260502215852 75 349 6.0 10.0 0.00 0.00 0.00 48 1018.7
20260502215350 77 311 4.0 7.0 0.00 0.00 0.00 47 1018.9
20260502214846 78 166 0.0 0.0 0.00 0.00 0.00 46 1018.9
20260502214343 76 310 5.0 7.0 0.00 0.00 0.00 47 1019.0
20260502213840 76 265 0.0 5.0 0.00 0.00 0.00 48 1019.0
20260502213337 76 67 0.0 7.0 0.00 0.00 0.00 48 1019.0
20260502212836 75 71 0.0 7.0 0.00 0.00 0.00 50 1019.0
20260502212334 75 239 0.0 0.0 0.00 0.00 0.00 47 1019.2
20260502211831 73 266 0.0 3.0 0.00 0.00 0.00 52 1019.3
20260502211326 72 275 5.0 10.0 0.00 0.00 0.00 52 1019.3
20260502210824 74 292 0.0 7.0 0.00 0.00 0.00 52 1019.4
20260502210321 75 270 1.0 5.0 0.00 0.00 0.00 49 1019.3
20260502205818 75 246 0.0 3.0 0.00 0.00 0.00 49 1019.4
20260502205314 74 32 0.0 0.0 0.00 0.00 0.00 50 1019.5
20260502204811 72 259 7.0 12.0 0.00 0.00 0.00 52 1019.6
20260502204308 72 274 3.0 12.0 0.00 0.00 0.00 52 1019.6
20260502203806 73 63 2.0 5.0 0.00 0.00 0.00 51 1019.7
20260502203304 71 227 0.0 12.0 0.00 0.00 0.00 53 1019.5
20260502202803 72 200 0.0 10.0 0.00 0.00 0.00 52 1019.6
20260502202304 73 218 0.0 0.0 0.00 0.00 0.00 51 1019.8
20260502201759 71 250 5.0 7.0 0.00 0.00 0.00 52 1019.8
20260502201255 71 273 0.0 7.0 0.00 0.00 0.00 53 1020.1
20260502200751 72 299 0.0 7.0 0.00 0.00 0.00 52 1019.8
20260502200247 73 234 0.0 0.0 0.00 0.00 0.00 52 1020.0
20260502195746 72 293 0.0 7.0 0.00 0.00 0.00 52 1020.1
20260502195242 71 31 0.0 3.0 0.00 0.00 0.00 54 1020.1
20260502194738 70 265 0.0 5.0 0.00 0.00 0.00 54 1020.2
20260502194236 72 264 0.0 0.0 0.00 0.00 0.00 52 1020.2
20260502193731 70 205 0.0 7.0 0.00 0.00 0.00 56 1020.4
20260502193229 70 222 0.0 0.0 0.00 0.00 0.00 55 1020.2
20260502192729 69 250 1.0 5.0 0.00 0.00 0.00 57 1020.4
20260502192227 70 269 4.0 5.0 0.00 0.00 0.00 54 1020.4